User: anonymous
Location: Caltech
(34.1382°N, 118.1253°W)
Time: 04:50:53
(UTC-07:00)
Language:

Cosmos 1125 Rocket - Orbit

View from above orbital plane
View from above orbital plane
View from above satellite
View from above satellite

Ground track
Ground track

The orbit data is extracted from the following two-line orbital elements,

1 11511U 79078B   14213.12785329  .00000096  00000-0  41768-4 0  8486
2 11511 074.0369 086.7843 0016450 230.0694 240.4223 14.36431742827690
Epoch (UTC): 01 August 2014 03:04:06
Eccentricity: 0.0016450
inclination: 74.0369°
perigee height: 758 km
apogee height: 782 km
right ascension of ascending node: 86.7843°
argument of perigee: 230.0694°
revolutions per day: 14.36431742
mean anomaly at epoch: 240.4223°
orbit number at epoch: 82769

The dashed part of the orbit path shows where the satellite is in the earth's shadow,  

DLR